Location: *
(50.2903°S, 172.5375°W)
Time: 23:25:58
(UTC+00:00)

Resurs 1-4 Rocket - Pass Details

Date: 24 February 2020
Orbit: 800 x 814 km, 98.6° (Epoch: 01 April)

Event Time Altitude Azimuth Distance (km) Brightness Sun altitude
Exits shadow 13:19:50 24° 250° (WSW) 1,660 3.6 -26.6°
Drops below altitude 10° 13:22:58 10° 216° (SW) 2,420 4.9 -26.4°
Sets 13:25:43 0° 203° (SSW) 3,357 5.8 -26.2°
